Location: Bad Dürkheim
(49.4618°N, 8.1724°E)
Time: 15:55:38
(UTC+00:00)

In-Cosmos 22 - Pass Details

Date: 14 June 2025
Orbit: 783 x 875 km, 81.2° (Epoch: 19 July)

Event Time Altitude Azimuth Distance (km) Brightness Sun altitude
Rises 20:32:37 0° 190° (S) 3,451 7.0 -7.5°
Reaches altitude 10° 20:35:03 10° 191° (S) 2,512 6.3 -7.7°
Maximum altitude 20:40:48 88° 279° (W) 869 4.3 -8.3°
Drops below altitude 10° 20:46:28 10° 12° (NNE) 2,483 7.3 -8.9°
Sets 20:48:52 0° 13° (NNE) 3,409 8.0 -9.1°
